Regional Weather Roundup
Issued by NWS

Home | Current Version | Previous Version | Text Only | Print | Product List | Glossary On
Versions: 1 2 3 4 5 6 7 8 9 10 11 12 13 14 15 16 17 18 19 20 21 22 23 24 25 26 27 28 29 30 31 32 33 34 35 36 37 38 39 40 41 42 43 44 45 46 47 48 49 50
000
ASUS45 KSLC 181910
RWRUT

UTAH REGIONAL WEATHER ROUNDUP
NATIONAL WEATHER SERVICE SALT LAKE CITY UT
1200 PM MST MON DEC 18 2017

UTZ001>011-023>025-182000-

NORTHERN UTAH

CITY           SKY/WX    TMP DP  RH WIND       PRES   REMARKS
BRIGHAM CITY   CLOUDY    34  23  63 CALM      30.31F
DUGWAY         PTSUNNY   34  23  64 SE5       30.29F WCI  30
HILL AFB       PTSUNNY   33  22  66 CALM      30.28F
LOGAN          CLOUDY    37  23  56 CALM      30.28F
OGDEN          CLOUDY    34  23  64 S6        30.29S WCI  29
SALT LAKE CITY PTSUNNY   39  24  55 S10       30.28F WCI  32
WENDOVER       SUNNY     29  20  69 E7        30.30F WCI  22
HEBER CITY       N/A     32  19  59 CALM      30.25F
WEST JORDAN    SUNNY     35  24  65 SE9       30.28F WCI  28

$$

UTZ011>015-024>027-182000-

CENTRAL/NORTHEAST UTAH

CITY           SKY/WX    TMP DP  RH WIND       PRES   REMARKS
PROVO AIRPORT  PTSUNNY   31  22  69 VRB5      30.32F WCI  26
MOAB/CANYONLAN PTSUNNY   37  13  37 CALM      30.24F
DELTA          SUNNY     32  21  64 CALM      30.30F
PRICE          SUNNY     37  15  40 SE6       30.21F WCI  32
RICHFIELD      SUNNY     32  18  55 CALM      30.29F
ROOSEVELT      CLOUDY    32  16  51 E3        30.27F
VERNAL         SUNNY     33  17  51 VRB3      30.23F

$$

UTZ013>016-019>022-027-182000-

SOUTHERN UTAH

CITY           SKY/WX    TMP DP  RH WIND       PRES   REMARKS
BRYCE CANYON   SUNNY     38  16  40 N3        30.22F
CEDAR CITY     SUNNY     33  19  56 E5        30.25F WCI  29
MILFORD        SUNNY     35  21  56 NW3       30.28F
ST GEORGE      CLEAR     42  19  39 CALM      30.28F
HANKSVILLE     SUNNY     32  14  47 CALM      30.29F
KANAB          SUNNY     43  12  28 S8        30.26F
BLANDING         N/A     41  11  30 S3        30.27F

$$

REGIONAL REPORTS     COLORADO/ARIZONA

CITY           SKY/WX    TMP DP  RH WIND       PRES   REMARKS
CRAIG, CO      CLOUDY    32  21  64 W5        30.20F WCI  27
GRAND JUNCTION CLOUDY    33  12  41 CALM      30.23F
RIFLE, CO      CLOUDY    31  13  47 CALM      30.24F
MONTROSE, CO   CLOUDY    38   9  30 NW3       30.23F
CORTEZ, CO     SUNNY     43   6  21 SW5       30.19F
COLORADO CITY    N/A     45  19  36 CALM      30.26F
PAGE, AZ       SUNNY     40  18  41 N5        30.24F
GRAND CANYON   SUNNY     48   7  18 VRB3      30.20F
KINGMAN, AZ    SUNNY     50  19  29 N7        30.22F
FLAGSTAFF, AZ  SUNNY     46  10  23 E8        30.18F

$$

REGIONAL REPORTS    NEVADA/IDAHO/WYOMING

CITY           SKY/WX    TMP DP  RH WIND       PRES   REMARKS
LAS VEGAS, NV  MOSUNNY   53  15  22 NE3       30.25F
ELY, NY        SUNNY     39  20  46 CALM      30.25F
ELKO, NV       SUNNY     32  17  54 SW5       30.28F WCI  27
POCATELLO, ID  CLOUDY    38  28  67 S17       30.18F WCI  28
BURLEY, ID     CLOUDY    41  22  46 SW8       30.18F
FORT BRIDGER,  CLOUDY    37  26  64 W14G24    30.21F WCI  29
EVANSTON, WY   CLOUDY    31  22  69 SW10      30.21F WCI  22
ROCK SPRINGS,  CLOUDY    34  22  61 W22G30    30.12F WCI  22

$$



USA.gov is the U.S. government's official web portal to all federal, state and local government web resources and services.